SCP
1 1 1 1 1 1 1 1 1 1 1 1 1 1 1 1 1 1 1 0 0 0 0 0 0 0 0 0 0 0 0 0 0 0 0 0 0 0 0 0 0 0 0
1 1 1 1 1 1 1 1 1 1 1 1 1 1 1 1 1 0 0 0 0 0 0 0 0 0 0 0 0 0 0 0 0 0 0 0 0 0 0 0 0 0 0
1 1 1 1 1 1 1 1 1 1 1 1 1 1 1 1 0 0 0 0 0 0 0 0 0 0 0 0 0 0 0 0 0 0 0 0 0 0 0 0 0 0 0
1 1 1 1 1 1 1 1 1 1 1 1 1 1 1 1 1 1 1 0 0 0 0 0 0 0 0 0 0 0 0 0 0 0 0 0 0 0 0 0 0 0 0
1 1 1 1 1 1 1 1 1 1 1 1 1 1 1 1 1 0 0 0 0 0 0 0 0 0 0 0 0 0 0 0 0 0 0 0 0 0 0 0 0 0 0
1 1 1 1 1 1 0 0 1 1 1 1 1 1 1 1 0 0 0 0 0 0 0 0 0 0 0 0 0 0 0 0 0 0 0 0 0 0 0 0 0 0 0
1 1 1 1 1 1 1 1 1 1 1 1 1 1 1 0 0 0 0 0 0 0 0 0 0 0 0 0 0 0 0 0 0 0 0 0 0 0 0 0 0 0 0
1 1 1 1 1 1 1 1 1 1 1 1 0 0 0 0 0 0 0 0 0 0 0 0 0 0 0 0 0 0 0 0 0 0 0 0 0 0 0 0 0 0 0
1 1 1 1 1 1 1 1 1 0 0 0 0 0 0 0 0 0 0 0 0 0 0 0 0 0 0 0 0 0 0 0 0 0 0 0 0 0 0 0 0 0 0
1 1 1 1 1 1 1 0 0 0 0 0 0 0 0 0 0 0 0 0 0 0 0 0 0 0 0 0 0 0 0 0 0 0 0 0 0 0 0 0 0 0 0
1 1 1 1 1 1 0 0 0 0 0 0 0 0 0 0 0 0 0 0 0 0 0 0 0 0 0 0 0 0 0 0 0 0 0 0 0 0 0 0 0 0 0
1 1 1 1 0 0 0 0 0 0 0 0 0 0 0 0 0 0 0 0 0 0 0 0 0 0 0 0 0 0 0 0 0 0 0 0 0 0 0 0 0 0 0
1 1 1 1 0 0 0 0 0 0 0 0 0 0 0 0 0 0 0 0 0 0 0 0 0 0 0 0 0 0 0 0 0 0 0 0 0 0 0 0 0 0 0
1 1 1 1 1 0 0 0 0 0 0 0 0 0 0 0 0 0 0 0 0 0 0 0 0 0 0 0 0 0 0 0 0 0 0 0 0 0 0 0 0 0 0
1 1 1 1 1 0 0 0 0 0 0 0 0 0 0 0 0 0 0 0 0 0 0 0 0 0 0 0 0 0 0 0 0 0 0 0 0 0 0 0 0 0 0
0 0 0 1 0 0 0 0 0 0 0 0 0 0 0 0 0 0 0 0 0 0 0 0 0 0 0 0 0 0 0 0 0 0 0 0 0 0 0 0 0 0 0
0 0 0 0 0 0 0 0 0 0 0 0 0 0 0 0 0 0 0 0 0 0 0 0 0 0 0 0 0 0 0 0 0 0 0 0 0 0 0 0 0 0 0
0 0 0 0 0 0 0 0 0 0 0 0 0 0 0 0 0 0 0 0 0 0 0 0 0 0 0 0 0 0 0 0 0 0 0 0 0 0 0 0 0 0 0
0 0 0 0 0 0 0 0 0 0 0 0 0 0 0 0 0 0 0 0 0 0 0 0 0 0 0 0 0 0 0 0 0 0 0 0 0 0 0 0 0 0 0
0 0 0 0 0 0 0 0 0 0 0 0 0 0 0 0 0 0 0 0 0 0 0 0 0 0 0 0 0 0 0 0 0 0 0 0 0 0 0 0 0 0 0
0 0 0 0 0 0 0 0 0 0 0 0 0 0 0 0 0 0 0 0 0 0 0 0 0 0 0 0 0 0 0 0 0 0 0 0 0 0 0 0 0 0 0
0 0 0 0 0 0 0 0 0 0 0 0 0 0 0 0 0 0 0 0 0 0 0 0 0 0 0 0 0 0 0 0 0 0 0 0 0 0 0 0 0 0 0
0 0 0 0 0 0 0 0 0 0 0 0 0 0 0 0 0 0 0 0 0 0 0 0 0 0 0 0 0 0 0 0 0 0 0 0 0 0 0 0 0 0 0
0 0 0 0 0 0 0 0 0 0 0 0 0 0 0 0 0 0 0 0 0 0 0 0 0 0 0 0 0 0 0 0 0 0 0 0 0 0 0 0 0 0 0
0 0 0 0 0 0 0 0 0 0 0 0 0 0 0 0 0 0 0 0 0 0 0 0 0 0 0 0 0 0 0 0 0 0 0 0 0 0 0 0 0 0 0
0 0 0 0 0 0 0 0 0 0 0 0 0 0 0 0 0 0 0 0 0 0 0 0 0 0 0 0 0 0 0 0 0 0 0 0 0 0 0 0 0 0 0
Wind_Speed
11 10 9 8 7 6 6 6 5 4 3 2 1 1 2 1 2 3 3 3 3 3 2 3 2 2 2 2 3 3 3 2 1 1 2 2 2 1 1 0 0 1 1
11 10 9 8 7 7 7 6 5 4 3 2 1 1 1 1 2 2 2 2 2 3 3 3 3 3 2 3 3 3 2 2 2 1 2 1 0 0 0 0 0 0 1
13 11 10 8 7 7 6 6 5 4 2 2 1 1 1 1 1 1 2 2 2 2 3 3 3 3 3 3 3 3 3 3 2 1 1 1 1 1 1 1 1 1 1
13 12 10 9 7 7 6 6 6 4 2 2 1 1 1 1 2 2 2 2 2 2 2 3 3 4 3 3 4 4 4 4 3 2 1 1 1 1 1 1 1 1 1
12 11 11 10 8 8 7 6 5 4 3 2 2 1 2 2 2 2 2 1 1 2 3 3 3 3 3 4 4 4 4 3 3 3 3 2 2 1 1 1 0 1 1
12 10 10 9 9 8 7 6 5 4 3 3 3 2 3 3 2 2 1 1 2 3 4 4 3 3 3 3 3 3 3 3 3 3 3 3 2 1 1 1 1 1 1
11 12 12 11 10 9 8 7 6 5 5 4 4 4 3 2 2 2 2 2 2 3 4 4 3 3 3 3 3 2 3 3 3 3 2 2 2 2 1 1 1 1 1
11 11 11 10 9 9 8 8 7 6 5 5 4 3 3 3 3 4 3 3 3 3 3 3 3 4 4 4 3 3 3 2 3 3 3 2 2 2 1 1 1 1 1
10 11 11 10 9 8 8 8 7 6 4 5 4 4 4 4 3 3 3 3 3 3 4 4 3 4 4 4 4 3 3 2 2 2 2 2 2 2 1 1 1 1 1
10 10 10 10 9 8 7 7 6 6 5 5 3 3 3 3 2 3 3 3 3 3 3 3 4 4 4 4 4 3 3 2 2 2 2 2 2 2 2 1 1 1 1
9 9 8 9 9 8 8 6 6 5 5 5 4 3 3 2 2 2 2 2 2 2 2 3 3 3 4 4 4 4 3 3 3 3 3 3 3 2 2 1 1 1 0
10 10 8 8 8 8 7 6 5 5 4 4 4 3 3 3 2 2 2 2 2 3 3 3 4 4 4 4 4 5 4 4 4 4 3 3 3 3 2 2 1 1 0
10 9 9 8 7 7 6 6 5 5 4 4 5 4 3 3 3 2 3 3 3 3 4 4 4 4 4 4 4 4 4 4 4 4 4 3 3 3 2 2 1 1 1
10 9 8 7 7 7 6 6 5 5 5 5 5 4 3 3 2 3 3 3 3 3 3 4 4 4 5 6 6 6 4 4 3 3 3 3 3 3 3 2 2 1 1
10 9 8 7 7 6 6 5 5 5 5 5 4 4 4 3 3 3 2 2 2 3 3 3 3 4 4 6 7 6 5 4 4 3 3 3 3 3 3 2 2 2 1
9 9 8 8 7 6 6 6 5 5 4 4 4 4 3 3 3 2 1 1 2 3 3 3 4 5 5 7 8 6 5 4 4 3 3 2 2 3 3 3 2 2 2
9 8 8 7 7 6 5 5 5 5 4 4 4 3 3 3 2 1 2 2 2 2 2 3 3 4 5 7 8 9 4 4 3 3 3 3 4 5 4 3 3 2 2
8 7 7 7 6 6 5 5 5 5 5 4 3 3 2 3 2 2 2 2 1 1 1 2 2 3 5 6 8 9 4 3 3 2 3 3 3 5 5 4 3 2 2
8 8 7 7 6 6 6 5 5 5 4 4 3 3 2 2 2 2 2 1 1 1 1 1 2 2 3 6 7 8 3 2 2 2 3 3 3 5 6 3 3 3 2
8 8 7 7 6 6 6 5 5 5 4 4 3 3 2 1 2 2 1 1 1 1 1 1 1 2 2 4 5 6 2 2 2 1 1 3 3 4 5 3 2 3 3
9 9 8 6 6 6 5 5 5 4 4 4 3 2 2 1 2 1 0 1 1 1 1 1 1 0 0 1 3 4 2 3 3 2 1 2 2 4 4 3 2 2 3
9 8 7 6 6 6 6 6 5 4 4 3 3 3 2 1 2 1 1 2 2 2 2 2 2 1 1 0 1 2 3 4 3 3 2 2 2 4 5 4 3 5 5
8 8 8 7 6 5 5 5 5 4 4 3 3 2 2 1 1 2 2 2 2 2 2 2 1 1 1 1 1 3 4 4 2 2 3 3 4 5 4 4 5 4 2
8 8 8 8 6 6 5 4 4 4 3 3 2 2 2 2 2 2 2 1 1 2 2 1 1 0 0 1 1 1 1 2 2 3 4 5 7 6 5 4 3 3 3
7 7 7 7 7 7 6 5 4 4 3 2 2 3 3 3 2 2 1 1 1 1 1 2 2 2 2 2 3 3 3 3 3 4 3 3 3 3 3 3 3 3 2
7 7 8 8 7 7 6 5 4 4 3 3 3 3 3 3 3 3 2 1 3 3 3 2 2 1 1 3 4 3 4 4 4 3 3 4 3 2 2 2 2 1 1
Wind_Direction
133 125 119 116 117 113 113 106 102 92 93 98 114 116 109 93 91 87 63 36 15 359 350 0 352 338 344 339 333 326 310 300 312 307 299 266 226 208 217 193 12 2 18
141 136 132 129 131 130 121 115 111 110 109 105 100 120 124 127 109 82 81 49 23 351 356 18 355 352 343 345 341 333 321 316 331 305 299 282 245 3 284 114 150 51 40
151 146 143 140 140 136 133 128 119 114 101 112 116 96 100 124 106 98 80 35 7 5 10 10 357 349 354 356 348 345 337 326 307 295 305 307 301 2 1 13 49 46 46
152 150 148 146 142 135 129 121 118 115 106 96 89 124 121 101 73 55 70 40 8 18 20 11 5 358 1 358 346 9 338 331 325 321 309 292 295 248 282 337 22 17 25
149 151 152 148 138 134 128 122 123 120 116 101 92 52 68 77 74 61 51 39 31 32 32 25 11 1 3 5 354 348 345 341 336 328 319 310 300 273 240 257 299 336 343
149 150 144 137 133 133 133 129 125 120 114 101 81 63 60 54 53 42 19 17 48 44 30 24 12 5 -0 354 343 337 340 338 334 327 321 318 314 318 313 272 279 288 307
154 153 145 145 144 142 141 135 127 115 101 91 77 66 63 53 48 27 23 20 39 42 29 20 2 357 346 334 332 327 329 331 331 323 315 316 310 304 302 277 295 300 291
149 148 144 143 144 143 142 132 123 115 108 99 87 77 62 48 47 36 26 33 31 29 21 8 359 352 345 346 344 331 326 336 326 325 329 309 311 317 288 253 272 296 293
143 141 141 141 139 136 130 125 123 119 112 99 91 85 72 61 53 42 34 38 22 15 14 359 356 353 349 348 344 339 344 341 332 333 342 339 326 318 315 296 227 228 257
143 140 141 137 131 126 119 118 120 119 116 112 103 93 81 71 65 53 47 38 18 3 354 352 351 353 350 349 347 339 340 338 342 333 340 339 333 337 337 336 319 289 233
137 130 128 128 124 122 118 119 122 122 117 114 106 96 90 77 71 59 44 30 2 346 352 351 347 345 346 350 343 334 348 355 354 352 2 355 346 348 335 334 323 338 15
126 123 128 130 127 127 128 132 132 127 125 119 111 98 87 80 70 57 35 18 1 357 2 1 354 354 3 355 350 345 356 355 356 357 359 351 356 360 355 349 353 358 307
128 128 131 132 131 132 132 133 132 133 132 129 120 113 98 82 72 56 36 26 16 12 7 9 7 3 2 2 358 351 353 0 0 3 359 356 3 2 358 351 1 345 2
135 137 137 135 132 134 135 136 133 132 130 123 118 116 105 94 78 64 42 24 13 12 17 9 7 6 16 12 3 355 355 358 1 9 5 3 10 4 349 354 3 355 341
143 144 142 136 133 132 133 129 124 124 120 123 123 114 108 102 85 67 47 24 3 15 18 12 14 10 31 17 4 351 350 358 1 4 14 22 25 14 346 346 343 334 314
145 145 143 139 137 136 133 125 128 128 124 125 119 112 110 103 90 76 62 28 13 16 6 18 22 23 25 14 6 356 341 345 357 359 2 10 25 16 349 326 305 300 298
141 146 143 137 136 137 135 135 138 134 129 126 122 116 109 106 100 74 66 41 33 21 10 20 35 38 26 12 358 349 332 337 353 356 349 357 13 12 354 327 286 269 273
138 136 134 132 132 134 136 137 137 137 137 137 131 118 114 110 101 79 71 47 32 20 13 31 33 35 28 9 354 342 333 338 354 4 8 10 16 11 356 332 351 6 356
129 128 132 135 138 139 140 142 140 141 146 145 141 133 117 100 91 74 55 46 23 352 359 53 40 37 21 2 352 344 327 347 354 7 15 18 27 8 357 351 355 1 3
127 132 137 140 140 140 144 148 150 150 149 148 144 132 120 107 81 73 39 351 319 318 327 44 45 40 18 350 348 345 334 347 341 341 40 42 27 8 1 355 353 355 358
133 137 138 137 140 143 148 153 154 154 151 145 139 135 138 148 122 93 359 301 297 303 329 336 306 32 324 324 334 346 341 337 335 335 4 50 33 15 2 352 337 322 322
138 143 141 138 141 150 157 155 154 149 143 144 148 152 165 202 129 149 230 253 259 256 240 244 248 216 183 257 282 299 309 318 334 342 7 47 11 347 334 324 310 318 325
141 144 145 142 144 150 156 154 151 150 147 146 151 162 169 180 186 222 236 232 236 252 247 236 228 202 166 177 267 276 282 296 308 324 324 316 304 309 304 283 286 298 290
146 149 150 148 146 148 148 144 147 145 146 147 156 181 192 204 217 246 271 283 306 303 301 303 308 318 106 57 14 292 264 276 281 292 289 278 270 266 268 282 273 248 249
148 152 151 147 147 149 149 153 153 151 157 170 196 216 210 202 210 209 273 303 25 3 317 343 348 348 4 5 340 330 344 352 8 330 291 270 261 250 240 242 241 232 223
150 153 153 152 153 156 159 163 162 169 173 189 212 227 222 211 212 192 179 199 209 205 211 229 251 269 239 263 292 310 318 322 341 332 291 280 266 269 270 261 248 239 235